GW4352 Weather Reports


time (UTC)temp
C
wind
direction
speed
KPH
gust
KPH
rain 1hr
cm
rain 24hr
cm
rain mn
cm
humidity
%
barometer
mb
20260510140021 11 41 4.8 14.5 0.05 0.05 0.05 84 1013.5
20260510135029 11 51 3.2 16.1 0.05 0.05 0.05 83 1013.6
20260510134055 11 65 3.2 9.7 0.03 0.03 0.03 82 1013.7
20260510133032 11 72 6.4 12.9 0.03 0.03 0.03 79 1013.6
20260510132018 11 42 6.4 17.7 0.00 0.00 0.00 77 1013.7
20260510131042 11 42 9.7 22.5 0.00 0.00 0.00 76 1013.6
20260510130019 11 46 9.7 20.9 0.00 0.00 0.00 75 1013.6
20260510125025 11 63 9.7 24.1 0.00 0.00 0.00 74 1013.5
20260510124045 12 46 11.3 22.5 0.00 0.00 0.00 71 1013.9
20260510123028 12 36 11.3 25.7 0.00 0.00 0.00 69 1013.8
20260510122056 12 57 9.7 22.5 0.00 0.00 0.00 68 1013.9
20260510121028 12 50 11.3 24.1 0.00 0.00 0.00 68 1013.8
20260510120018 13 39 9.7 22.5 0.00 0.00 0.00 67 1013.9
20260510115042 12 36 14.5 30.6 0.00 0.00 0.00 68 1014.0
20260510114019 12 27 14.5 25.7 0.00 0.00 0.00 69 1013.8
20260510113025 12 37 12.9 27.4 0.00 0.00 0.00 70 1013.8
20260510112042 12 38 14.5 37.0 0.00 0.00 0.00 70 1013.9
20260510111049 12 40 12.9 22.5 0.00 0.00 0.00 71 1014.0
20260510110034 12 49 12.9 25.7 0.00 0.00 0.00 72 1014.1
20260510105027 12 48 8.0 25.7 0.00 0.00 0.00 72 1014.3
20260510104045 12 47 14.5 25.7 0.00 0.00 0.00 72 1014.2
20260510103043 12 29 14.5 25.7 0.00 0.00 0.00 72 1014.4
20260510102040 12 34 11.3 25.7 0.00 0.00 0.00 72 1014.3
20260510101026 11 50 12.9 33.8 0.00 0.00 0.00 72 1014.3
20260510100021 11 34 11.3 25.7 0.00 0.00 0.00 72 1014.4
20260510095027 11 51 11.3 25.7 0.00 0.00 0.00 72 1014.2
20260510094034 11 35 12.9 29.0 0.00 0.00 0.00 73 1014.4
20260510093029 11 50 9.7 22.5 0.00 0.00 0.00 74 1014.4
20260510092019 11 65 9.7 24.1 0.00 0.00 0.00 75 1014.4
20260510091102 11 38 11.3 24.1 0.00 0.00 0.00 75 1014.6
20260510090018 11 38 12.9 25.7 0.00 0.00 0.00 76 1014.6
20260510085026 11 31 8.0 17.7 0.00 0.00 0.00 77 1014.5
20260510084022 11 42 16.1 29.0 0.00 0.00 0.00 77 1014.6
20260510083042 11 41 11.3 27.4 0.00 0.00 0.00 78 1014.6
20260510082056 11 40 11.3 25.7 0.00 0.00 0.00 79 1014.9
20260510081026 11 32 9.7 24.1 0.00 0.00 0.00 80 1014.7
20260510080018 10 32 8.0 22.5 0.00 0.00 0.00 80 1014.7
20260510075042 10 43 12.9 24.1 0.00 0.00 0.00 81 1014.6
20260510074019 10 43 11.3 20.9 0.00 0.00 0.00 81 1014.6
20260510073027 10 37 6.4 17.7 0.00 0.00 0.00 82 1014.6
20260510072019 10 47 9.7 22.5 0.00 0.00 0.00 83 1014.8
20260510071026 10 39 6.4 25.7 0.00 0.00 0.00 84 1014.7
20260510070034 10 47 8.0 17.7 0.00 0.00 0.00 84 1014.6
20260510065028 10 33 6.4 16.1 0.00 0.00 0.00 84 1014.5
20260510064018 10 32 8.0 16.1 0.00 0.00 0.00 85 1014.7
20260510063102 10 31 8.0 20.9 0.00 0.00 0.00 85 1014.6
20260510062020 10 29 6.4 14.5 0.00 0.00 0.00 86 1014.8
20260510061025 10 32 6.4 14.5 0.00 0.00 0.00 86 1014.5
20260510060020 10 46 8.0 16.1 0.00 0.00 0.00 87 1014.6
20260510055027 9 51 6.4 14.5 0.00 0.00 0.00 87 1014.5
20260510054035 9 38 6.4 16.1 0.00 0.00 0.00 87 1014.4
20260510053028 9 39 8.0 14.5 0.00 0.00 0.00 88 1014.5
20260510052019 9 37 6.4 14.5 0.00 0.00 0.00 88 1014.4
20260510051041 9 40 6.4 14.5 0.00 0.00 0.00 89 1014.3
20260510050018 9 20 6.4 16.1 0.00 0.00 0.00 89 1014.3
20260510045027 9 49 4.8 12.9 0.00 0.00 0.00 89 1014.3
20260510044020 9 49 4.8 14.5 0.00 0.00 0.00 89 1014.4
20260510043027 9 38 4.8 20.9 0.00 0.00 0.00 89 1014.3
20260510042034 9 46 4.8 11.3 0.00 0.00 0.00 89 1014.3
20260510041028 9 43 4.8 11.3 0.00 0.00 0.00 89 1014.3
20260510040039 9 44 6.4 14.5 0.00 0.00 0.00 89 1014.6
20260510035042 9 39 4.8 12.9 0.00 0.00 0.00 88 1014.6
20260510034019 9 43 6.4 12.9 0.00 0.00 0.00 88 1014.6
20260510033023 9 41 4.8 14.5 0.00 0.00 0.00 88 1014.7
20260510032018 9 52 6.4 14.5 0.00 0.00 0.00 88 1014.7
20260510031031 10 44 4.8 12.9 0.00 0.00 0.00 87 1014.6
20260510030034 10 30 6.4 17.7 0.00 0.00 0.00 86 1014.8
20260510025032 10 38 6.4 17.7 0.00 0.00 0.00 85 1014.8
20260510024017 10 34 8.0 17.7 0.00 0.00 0.00 84 1014.6
20260510023042 10 32 8.0 22.5 0.00 0.00 0.00 82 1014.8
20260510022021 10 32 8.0 16.1 0.00 0.00 0.00 78 1014.8
20260510021027 10 42 8.0 17.7 0.00 0.00 0.00 76 1014.9
20260510020035 10 40 6.4 14.5 0.00 0.00 0.00 74 1014.9
20260510015029 10 43 4.8 14.5 0.00 0.00 0.00 73 1014.8
20260510014020 11 31 6.4 14.5 0.00 0.00 0.00 72 1014.7
20260510013028 11 32 4.8 12.9 0.00 0.00 0.00 72 1014.8
20260510012039 11 37 3.2 12.9 0.00 0.00 0.00 71 1014.8
20260510011043 11 35 4.8 17.7 0.00 0.00 0.00 70 1014.8
20260510010040 11 39 6.4 12.9 0.00 0.00 0.00 70 1014.7
20260510005026 11 39 8.0 16.1 0.00 0.00 0.00 70 1014.7
20260510004021 11 38 3.2 11.3 0.00 0.00 0.00 71 1014.7
20260510003027 11 38 3.2 9.7 0.00 0.00 0.00 70 1014.8
20260510002056 11 36 6.4 11.3 0.00 0.00 0.00 69 1014.8
20260510001028 11 49 8.0 16.1 0.00 0.00 0.00 68 1014.8
20260510000018 11 45 4.8 16.1 0.00 0.00 0.00 67 1014.9
20260509235041 12 33 6.4 12.9 0.00 0.00 0.00 66 1015.0
20260509234019 11 29 4.8 9.7 0.00 0.00 0.00 66 1014.9
20260509233025 12 50 6.4 12.9 0.00 0.00 0.00 64 1014.9
20260509232039 12 39 4.8 9.7 0.00 0.00 0.00 64 1015.1
20260509231109 12 35 3.2 6.4 0.00 0.00 0.00 63 1014.7
20260509230033 12 22 1.6 4.8 0.00 0.00 0.00 62 1014.8
20260509225050 12 46 3.2 6.4 0.00 0.00 0.00 61 1014.9
20260509224040 12 36 4.8 9.7 0.00 0.00 0.00 60 1014.9
20260509223042 12 38 4.8 11.3 0.00 0.00 0.00 58 1015.0
20260509222040 12 41 3.2 9.7 0.00 0.00 0.00 56 1015.0
20260509221026 12 30 4.8 11.3 0.00 0.00 0.00 54 1015.0
20260509220020 12 34 4.8 9.7 0.00 0.00 0.00 52 1015.0
20260509215047 12 23 3.2 9.7 0.00 0.00 0.00 51 1015.0
20260509214034 12 28 3.2 6.4 0.00 0.00 0.00 50 1014.8
20260509213050 13 29 3.2 11.3 0.00 0.00 0.00 48 1015.1
20260509212018 13 16 4.8 11.3 0.00 0.00 0.00 47 1014.9
20260509211043 13 36 6.4 12.9 0.00 0.00 0.00 47 1014.6
20260509210019 13 27 1.6 6.4 0.00 0.00 0.00 48 1014.6
20260509205026 13 45 3.2 11.3 0.00 0.00 0.00 47 1014.5
20260509204020 14 40 4.8 12.9 0.00 0.00 0.00 47 1014.5
20260509203029 14 29 1.6 9.7 0.00 0.00 0.00 47 1014.4
20260509202055 15 31 3.2 9.7 0.00 0.00 0.00 46 1014.4
20260509201028 15 45 3.2 6.4 0.00 0.00 0.00 46 1014.2
20260509200024 15 44 3.2 6.4 0.00 0.00 0.00 46 1014.0
20260509195042 15 45 3.2 9.7 0.00 0.00 0.00 46 1014.3
20260509194034 15 48 3.2 6.4 0.00 0.00 0.00 46 1014.2
20260509193026 16 84 3.2 9.7 0.00 0.00 0.00 47 1014.0
20260509192018 16 70 3.2 9.7 0.00 0.00 0.00 46 1014.0
20260509191049 16 75 3.2 9.7 0.00 0.00 0.00 47 1013.9
20260509190034 16 64 8.0 22.5 0.00 0.00 0.00 46 1013.9
20260509185048 16 79 1.6 9.7 0.00 0.00 0.00 46 1014.0
20260509184018 17 68 4.8 12.9 0.00 0.00 0.00 44 1013.8
20260509183101 17 82 1.6 4.8 0.00 0.00 0.00 42 1013.8
20260509182018 17 73 4.8 17.7 0.00 0.00 0.00 42 1013.6
20260509181026 17 74 6.4 17.7 0.00 0.00 0.00 44 1013.7
20260509180020 18 81 3.2 14.5 0.00 0.00 0.00 45 1013.8
20260509175026 18 62 4.8 14.5 0.00 0.00 0.00 44 1013.4
20260509174055 18 55 4.8 14.5 0.00 0.00 0.00 44 1013.3
20260509173028 18 63 6.4 14.5 0.00 0.00 0.00 43 1013.4
20260509172017 19 71 6.4 16.1 0.00 0.00 0.00 43 1013.4
20260509171042 19 76 8.0 16.1 0.00 0.00 0.00 42 1013.3
20260509170019 20 70 6.4 16.1 0.00 0.00 0.00 42 1013.3
20260509165027 20 85 4.8 12.9 0.00 0.00 0.00 42 1013.2
20260509164021 20 78 6.4 16.1 0.00 0.00 0.00 42 1013.3
20260509163048 20 72 8.0 20.9 0.00 0.00 0.00 42 1013.5
20260509162033 20 76 4.8 12.9 0.00 0.00 0.00 42 1013.3
20260509161027 20 67 6.4 24.1 0.00 0.00 0.00 41 1013.3
20260509160018 21 72 3.2 9.7 0.00 0.00 0.00 41 1013.3
20260509155043 20 84 6.4 12.9 0.00 0.00 0.00 40 1013.4
20260509154019 21 91 4.8 12.9 0.00 0.00 0.00 40 1013.3
20260509153027 21 96 8.0 12.9 0.00 0.00 0.00 40 1013.5
20260509152041 21 106 4.8 11.3 0.00 0.00 0.00 40 1013.6
20260509151032 21 110 6.4 14.5 0.00 0.00 0.00 40 1013.6
20260509150025 21 78 4.8 11.3 0.00 0.00 0.00 41 1013.8
20260509145027 21 109 4.8 12.9 0.00 0.00 0.00 40 1013.7
20260509144021 21 52 4.8 12.9 0.00 0.00 0.00 42 1013.6
20260509143043 20 75 4.8 11.3 0.00 0.00 0.00 43 1013.6
20260509142101 20 47 9.7 22.5 0.00 0.00 0.00 43 1013.2
20260509141026 20 47 6.4 14.5 0.00 0.00 0.00 43 1013.3